Location: Cabo di Oristano
(39.8500°N, 8.4333°E)
Time: 17:44:20
(UTC+00:00)

Cosmos 1331 Rocket - Pass Details

Date: 31 January 2023
Orbit: 749 x 776 km, 74.0° (Epoch: 31 March)

Event Time Altitude Azimuth Distance (km) Brightness Sun altitude
Rises 05:50:28 0° 218° (SW) 3,226 7.0 -9.1°
Reaches altitude 10° 05:53:00 10° 226° (SW) 2,300 6.2 -8.6°
Maximum altitude 05:57:52 39° 295° (WNW) 1,137 4.4 -7.7°
Drops below altitude 10° 06:02:43 10° 4° (N) 2,296 6.3 -6.8°
Sets 06:05:15 0° 12° (NNE) 3,220 7.2 -6.3°
